Starlink 32868

operational
NORAD ID: 62854 Int'l Des: 2025-022 Owner: SPXS Country: US Constellation: starlink
LEOCIRCULAR

Starlink 32868について

説明を読み込み中...

リアルタイム位置

3D地球を読み込み中...

次回通過

高度履歴

Altitude vs Time

uPlot chart will show altitude changes over time

軌道要素

1 62854U 25022A 25259.29041806 .00023296 00000-0 79587-3 0 9990
2 62854 53.1584 219.3372 0001604 90.2617 269.8567 15.30213317 36015
Epoch: Sep 16, 2025 • Age: 20 hours

現在のステータス

高度 475.5 km
速度 7.63 km/s
衛星直下点 4.00°N, 171.51°E
打ち上げ日 Feb 2, 2025
運用期間 0.6 years
タイプ internet

技術仕様

分類 Payload
質量 730.00 kg
乾燥質量 700.00 kg
総質量 730.00 kg
長さ 0.30 m
直径 4.10 m
スパン 29.00 m
形状 Box + pan
製造者 SPXS
バスタイプ Starlink V2M
フェーズステータス In Orbit
所有者/国 SPXS/US

大規模コンステレーション

Loading constellations...